ATLAS 5 CENTAUR DEB, 43958

Orbit data source: Space-Track

ATLAS 5 CENTAUR DEB, 43958 is space debris in HEO originally from a launch on Wed, 17 Sep 2014 UTC launched from the Air Force Eastern Test Range (AFETR). Debris objects in space refer to the collection of defunct objects orbiting the Earth. Examples of debris include non-operational satellites, rocket bodies, and fragments generated from explosions, collisions, or faulty payload assembly.

Loading next visibility...
Identifier
43958, 2014-055M
Orbit
HEO
Country
Flag of USUS
Related business
Flag of USUnited Launch Alliance/Lockheed Martin (US)
Manufacturer
Unknown
Mission
Spacecraft
Bus & Motor
Unknown
Mass
Unknown
Launch date (UTC)
2014-09-17 (12 years ago)
Launch vehicle
Unknown
Launch site
Air Force Eastern Test Range (AFETR)
Object type
Payload
Rocket body
Debris
Shape & HBR
Unknown shape, 1.1 m
Radar Cross Section
Small (<0.1 m²)

Expand to show TLE details & history
Last TLE update: 1 day ago

TLE from 1 day ago
0 ATLAS 5 CENTAUR DEB
1 43958U 14055M   26118.69228090 -.00000006  00000-0  00000-0 0  9995
2 43958  20.3266 140.0242 4688903 172.4243 198.4694  1.89317893 52966
Epoch: 2026-04-28T16:36Z
TLE epoch observation values (Epoch: 2026-04-28T16:36:53.069Z)
Latitude
0.00002°
Longitude
34.1777°
Altitude
33,830.391 km
Speed
2.321 km/s
True Right ascension
09h 20m 15s
True Declination
0° 00' 00"
Sunlit
Object was in daylight at epoch
Visualization orbit readout
Latitude
Unknown
Longitude
Unknown
Altitude
Unknown
Speed
Unknown
Apparent Right ascension
Unknown
Apparent Declination
Unknown
Sunlit
N/A
Visualization observer readout
Local Sidereal Time
11:06:51
Azimuth
Unknown
Elevation
Unknown
Doppler factor
Unknown
Orbital elements
Apogee altitude
34,169.001 km
Perigee altitude
8,282.575 km
Semi-major axis
27,603.925 km
Eccentricity
0.46889
Inclination
20.3266°
RAAN
140.0242°
Arg. of periapsis
172.4243°
True anomaly
187.59972°
Mean anomaly
198.4694°
Eccentric anomaly
192.6061°
Mean motion
0.47325 °/min
Orbital period
760.7 mins
BSTAR
0
Loading maneuver chart data...
Computing Atmospheric mass density...

Documentation

Showing up to 5 results
|